#datetime,building,power
2022-08-07T00:00:00,mfh,17.90
2022-08-07T00:01:00,mfh,17.84
2022-08-07T00:02:00,mfh,18.38
2022-08-07T00:03:00,mfh,18.55
2022-08-07T00:04:00,mfh,18.55
2022-08-07T00:05:00,mfh,18.57
2022-08-07T00:06:00,mfh,17.90
2022-08-07T00:07:00,mfh,17.98
2022-08-07T00:08:00,mfh,18.50
2022-08-07T00:09:00,mfh,18.14
2022-08-07T00:10:00,mfh,18.75
2022-08-07T00:11:00,mfh,18.75
2022-08-07T00:12:00,mfh,18.65
2022-08-07T00:13:00,mfh,18.72
2022-08-07T00:14:00,mfh,18.02
2022-08-07T00:15:00,mfh,18.00
2022-08-07T00:16:00,mfh,18.00
2022-08-07T00:17:00,mfh,17.99
2022-08-07T00:18:00,mfh,18.62
2022-08-07T00:19:00,mfh,18.68
2022-08-07T00:20:00,mfh,18.80
2022-08-07T00:21:00,mfh,18.78
2022-08-07T00:22:00,mfh,17.89
2022-08-07T00:23:00,mfh,17.93
2022-08-07T00:24:00,mfh,17.96
2022-08-07T00:25:00,mfh,17.89
2022-08-07T00:26:00,mfh,18.37
2022-08-07T00:27:00,mfh,18.33
2022-08-07T00:28:00,mfh,18.37
2022-08-07T00:29:00,mfh,18.43
2022-08-07T00:30:00,mfh,17.66
2022-08-07T00:31:00,mfh,17.64
2022-08-07T00:32:00,mfh,17.77
2022-08-07T00:33:00,mfh,17.65
2022-08-07T00:34:00,mfh,18.26
2022-08-07T00:35:00,mfh,18.23
2022-08-07T00:36:00,mfh,18.23
2022-08-07T00:37:00,mfh,18.48
2022-08-07T00:38:00,mfh,18.48
2022-08-07T00:39:00,mfh,17.79
2022-08-07T00:40:00,mfh,17.77
2022-08-07T00:41:00,mfh,17.84
2022-08-07T00:42:00,mfh,18.39
2022-08-07T00:43:00,mfh,18.51
2022-08-07T00:44:00,mfh,18.52
2022-08-07T00:45:00,mfh,18.54
2022-08-07T00:46:00,mfh,18.51
2022-08-07T00:47:00,mfh,17.90
2022-08-07T00:48:00,mfh,17.89
2022-08-07T00:49:00,mfh,18.00
2022-08-07T00:50:00,mfh,18.01
2022-08-07T00:51:00,mfh,18.53
2022-08-07T00:52:00,mfh,18.58
2022-08-07T00:53:00,mfh,18.56
2022-08-07T00:54:00,mfh,19.89
2022-08-07T00:55:00,mfh,17.77
2022-08-07T00:56:00,mfh,17.78
2022-08-07T00:57:00,mfh,17.92
2022-08-07T00:58:00,mfh,17.97
2022-08-07T00:59:00,mfh,18.47
2022-08-07T01:00:00,mfh,18.39
2022-08-07T01:01:00,mfh,18.49
2022-08-07T01:02:00,mfh,18.49
2022-08-07T01:03:00,mfh,17.82
2022-08-07T01:04:00,mfh,17.82
2022-08-07T01:05:00,mfh,17.91
2022-08-07T01:06:00,mfh,17.97
2022-08-07T01:07:00,mfh,18.51
2022-08-07T01:08:00,mfh,18.62
2022-08-07T01:09:00,mfh,18.62
2022-08-07T01:10:00,mfh,19.05
2022-08-07T01:11:00,mfh,18.37
2022-08-07T01:12:00,mfh,18.36
2022-08-07T01:13:00,mfh,18.28
2022-08-07T01:14:00,mfh,18.29
2022-08-07T01:15:00,mfh,18.28
2022-08-07T01:16:00,mfh,18.82
2022-08-07T01:17:00,mfh,18.93
2022-08-07T01:18:00,mfh,19.02
2022-08-07T01:19:00,mfh,19.02
2022-08-07T01:20:00,mfh,18.23
2022-08-07T01:21:00,mfh,18.11
2022-08-07T01:22:00,mfh,18.19
2022-08-07T01:23:00,mfh,18.18
2022-08-07T01:24:00,mfh,18.66
2022-08-07T01:25:00,mfh,18.71
2022-08-07T01:26:00,mfh,18.71
2022-08-07T01:27:00,mfh,18.74
2022-08-07T01:28:00,mfh,17.79
2022-08-07T01:29:00,mfh,17.81
2022-08-07T01:30:00,mfh,17.77
2022-08-07T01:31:00,mfh,17.77
2022-08-07T01:32:00,mfh,18.55
2022-08-07T01:33:00,mfh,18.37
2022-08-07T01:34:00,mfh,18.38
2022-08-07T01:35:00,mfh,17.66
2022-08-07T01:36:00,mfh,17.64
2022-08-07T01:37:00,mfh,18.40
2022-08-07T01:38:00,mfh,18.50
2022-08-07T01:39:00,mfh,18.52
2022-08-07T01:40:00,mfh,19.06
2022-08-07T01:41:00,mfh,18.24
2022-08-07T01:42:00,mfh,18.23
2022-08-07T01:43:00,mfh,19.44
2022-08-07T01:44:00,mfh,17.79
2022-08-07T01:45:00,mfh,17.86
2022-08-07T01:46:00,mfh,17.87
2022-08-07T01:47:00,mfh,18.05
2022-08-07T01:48:00,mfh,19.39
2022-08-07T01:49:00,mfh,19.41
2022-08-07T01:50:00,mfh,18.99
2022-08-07T01:51:00,mfh,18.41
2022-08-07T01:52:00,mfh,18.07
2022-08-07T01:53:00,mfh,18.15
2022-08-07T01:54:00,mfh,18.79
2022-08-07T01:55:00,mfh,18.86
2022-08-07T01:56:00,mfh,18.97
2022-08-07T01:57:00,mfh,18.26
2022-08-07T01:58:00,mfh,18.20
2022-08-07T01:59:00,mfh,18.20
2022-08-07T02:00:00,mfh,18.11
2022-08-07T02:01:00,mfh,18.10
2022-08-07T02:02:00,mfh,20.08
2022-08-07T02:03:00,mfh,18.06
2022-08-07T02:04:00,mfh,18.06
2022-08-07T02:05:00,mfh,17.96
2022-08-07T02:06:00,mfh,17.91
2022-08-07T02:07:00,mfh,18.39
2022-08-07T02:08:00,mfh,18.78
2022-08-07T02:09:00,mfh,18.43
2022-08-07T02:10:00,mfh,18.44
2022-08-07T02:11:00,mfh,17.81
2022-08-07T02:12:00,mfh,17.81
2022-08-07T02:13:00,mfh,17.91
2022-08-07T02:14:00,mfh,18.05
2022-08-07T02:15:00,mfh,18.05
2022-08-07T02:16:00,mfh,18.67
2022-08-07T02:17:00,mfh,19.05
2022-08-07T02:18:00,mfh,19.02
2022-08-07T02:19:00,mfh,18.28
2022-08-07T02:20:00,mfh,18.34
2022-08-07T02:21:00,mfh,18.28
2022-08-07T02:22:00,mfh,18.57
2022-08-07T02:23:00,mfh,19.28
2022-08-07T02:24:00,mfh,18.89
2022-08-07T02:25:00,mfh,18.84
2022-08-07T02:26:00,mfh,18.94
2022-08-07T02:27:00,mfh,18.26
2022-08-07T02:28:00,mfh,18.39
2022-08-07T02:29:00,mfh,18.38
2022-08-07T02:30:00,mfh,18.22
2022-08-07T02:31:00,mfh,18.14
2022-08-07T02:32:00,mfh,18.80
2022-08-07T02:33:00,mfh,18.81
2022-08-07T02:34:00,mfh,18.91
2022-08-07T02:35:00,mfh,18.00
2022-08-07T02:36:00,mfh,19.02
2022-08-07T02:37:00,mfh,18.08
2022-08-07T02:38:00,mfh,18.04
2022-08-07T02:39:00,mfh,18.04
2022-08-07T02:40:00,mfh,18.64
2022-08-07T02:41:00,mfh,18.66
2022-08-07T02:42:00,mfh,18.64
2022-08-07T02:43:00,mfh,18.07
2022-08-07T02:44:00,mfh,18.14
2022-08-07T02:45:00,mfh,18.24
2022-08-07T02:46:00,mfh,18.16
2022-08-07T02:47:00,mfh,18.13
2022-08-07T02:48:00,mfh,18.82
2022-08-07T02:49:00,mfh,18.82
2022-08-07T02:50:00,mfh,19.47
2022-08-07T02:51:00,mfh,19.11
2022-08-07T02:52:00,mfh,18.41
2022-08-07T02:53:00,mfh,18.48
2022-08-07T02:54:00,mfh,18.32
2022-08-07T02:55:00,mfh,18.23
2022-08-07T02:56:00,mfh,18.85
2022-08-07T02:57:00,mfh,18.78
2022-08-07T02:58:00,mfh,19.77
2022-08-07T02:59:00,mfh,18.94
2022-08-07T03:00:00,mfh,18.20
2022-08-07T03:01:00,mfh,18.82
2022-08-07T03:02:00,mfh,18.37
2022-08-07T03:03:00,mfh,18.28
2022-08-07T03:04:00,mfh,18.91
2022-08-07T03:05:00,mfh,18.92
2022-08-07T03:06:00,mfh,18.95
2022-08-07T03:07:00,mfh,18.90
2022-08-07T03:08:00,mfh,17.98
2022-08-07T03:09:00,mfh,18.09
2022-08-07T03:10:00,mfh,18.06
2022-08-07T03:11:00,mfh,17.97
2022-08-07T03:12:00,mfh,19.17
2022-08-07T03:13:00,mfh,18.63
2022-08-07T03:14:00,mfh,18.64
2022-08-07T03:15:00,mfh,18.77
2022-08-07T03:16:00,mfh,18.02
2022-08-07T03:17:00,mfh,18.08
2022-08-07T03:18:00,mfh,18.06
2022-08-07T03:19:00,mfh,17.89
2022-08-07T03:20:00,mfh,18.57
2022-08-07T03:21:00,mfh,18.56
2022-08-07T03:22:00,mfh,18.81
2022-08-07T03:23:00,mfh,18.12
2022-08-07T03:24:00,mfh,18.06
2022-08-07T03:25:00,mfh,19.01
2022-08-07T03:26:00,mfh,18.08
2022-08-07T03:27:00,mfh,18.13
2022-08-07T03:28:00,mfh,18.73
2022-08-07T03:29:00,mfh,18.77
2022-08-07T03:30:00,mfh,19.21
2022-08-07T03:31:00,mfh,18.88
2022-08-07T03:32:00,mfh,18.59
2022-08-07T03:33:00,mfh,18.12
2022-08-07T03:34:00,mfh,18.71
2022-08-07T03:35:00,mfh,18.39
2022-08-07T03:36:00,mfh,18.79
2022-08-07T03:37:00,mfh,18.83
2022-08-07T03:38:00,mfh,18.84
2022-08-07T03:39:00,mfh,18.83
2022-08-07T03:40:00,mfh,18.22
2022-08-07T03:41:00,mfh,18.18
2022-08-07T03:42:00,mfh,18.04
2022-08-07T03:43:00,mfh,18.17
2022-08-07T03:44:00,mfh,18.72
2022-08-07T03:45:00,mfh,18.58
2022-08-07T03:46:00,mfh,18.59
2022-08-07T03:47:00,mfh,18.59
2022-08-07T03:48:00,mfh,17.92
2022-08-07T03:49:00,mfh,18.07
2022-08-07T03:50:00,mfh,18.09
2022-08-07T03:51:00,mfh,18.07
2022-08-07T03:52:00,mfh,18.58
2022-08-07T03:53:00,mfh,18.58
2022-08-07T03:54:00,mfh,18.57
2022-08-07T03:55:00,mfh,18.54
2022-08-07T03:56:00,mfh,18.07
2022-08-07T03:57:00,mfh,19.25
2022-08-07T03:58:00,mfh,18.08
2022-08-07T03:59:00,mfh,17.96
2022-08-07T04:00:00,mfh,18.57
2022-08-07T04:01:00,mfh,18.51
2022-08-07T04:02:00,mfh,18.56
2022-08-07T04:03:00,mfh,18.61
2022-08-07T04:04:00,mfh,18.63
2022-08-07T04:05:00,mfh,17.94
2022-08-07T04:06:00,mfh,18.05
2022-08-07T04:07:00,mfh,18.21
2022-08-07T04:08:00,mfh,18.11
2022-08-07T04:09:00,mfh,18.57
2022-08-07T04:10:00,mfh,18.62
2022-08-07T04:11:00,mfh,18.62
2022-08-07T04:12:00,mfh,18.66
2022-08-07T04:13:00,mfh,17.88
2022-08-07T04:14:00,mfh,17.97
2022-08-07T04:15:00,mfh,17.83
2022-08-07T04:16:00,mfh,17.84
2022-08-07T04:17:00,mfh,19.20
2022-08-07T04:18:00,mfh,19.43
2022-08-07T04:19:00,mfh,19.41
2022-08-07T04:20:00,mfh,18.80
2022-08-07T04:21:00,mfh,18.00
2022-08-07T04:22:00,mfh,17.98
2022-08-07T04:23:00,mfh,17.99
2022-08-07T04:24:00,mfh,17.98
2022-08-07T04:25:00,mfh,18.48
2022-08-07T04:26:00,mfh,18.46
2022-08-07T04:27:00,mfh,18.52
2022-08-07T04:28:00,mfh,17.72
2022-08-07T04:29:00,mfh,17.73
2022-08-07T04:30:00,mfh,17.95
2022-08-07T04:31:00,mfh,18.01
2022-08-07T04:32:00,mfh,19.48
2022-08-07T04:33:00,mfh,20.12
2022-08-07T04:34:00,mfh,20.15
2022-08-07T04:35:00,mfh,20.05
2022-08-07T04:36:00,mfh,20.16
2022-08-07T04:37:00,mfh,19.47
2022-08-07T04:38:00,mfh,19.47
2022-08-07T04:39:00,mfh,17.82
2022-08-07T04:40:00,mfh,17.89
2022-08-07T04:41:00,mfh,18.55
2022-08-07T04:42:00,mfh,18.44
2022-08-07T04:43:00,mfh,18.55
2022-08-07T04:44:00,mfh,18.68
2022-08-07T04:45:00,mfh,17.97
2022-08-07T04:46:00,mfh,18.03
2022-08-07T04:47:00,mfh,18.02
2022-08-07T04:48:00,mfh,18.14
2022-08-07T04:49:00,mfh,18.51
2022-08-07T04:50:00,mfh,18.65
2022-08-07T04:51:00,mfh,18.56
2022-08-07T04:52:00,mfh,18.49
2022-08-07T04:53:00,mfh,17.86
2022-08-07T04:54:00,mfh,17.84
2022-08-07T04:55:00,mfh,17.85
2022-08-07T04:56:00,mfh,17.85
2022-08-07T04:57:00,mfh,18.46
2022-08-07T04:58:00,mfh,18.59
2022-08-07T04:59:00,mfh,18.68
2022-08-07T05:00:00,mfh,18.71
2022-08-07T05:01:00,mfh,33.08
2022-08-07T05:02:00,mfh,32.92
2022-08-07T05:03:00,mfh,33.34
2022-08-07T05:04:00,mfh,33.06
2022-08-07T05:05:00,mfh,33.89
2022-08-07T05:06:00,mfh,33.99
2022-08-07T05:07:00,mfh,34.17
2022-08-07T05:08:00,mfh,34.19
2022-08-07T05:09:00,mfh,33.25
2022-08-07T05:10:00,mfh,33.28
2022-08-07T05:11:00,mfh,33.22
2022-08-07T05:12:00,mfh,33.20
2022-08-07T05:13:00,mfh,33.91
2022-08-07T05:14:00,mfh,33.95
2022-08-07T05:15:00,mfh,34.07
2022-08-07T05:16:00,mfh,34.05
2022-08-07T05:17:00,mfh,33.34
2022-08-07T05:18:00,mfh,33.25
2022-08-07T05:19:00,mfh,33.18
2022-08-07T05:20:00,mfh,33.53
2022-08-07T05:21:00,mfh,33.89
2022-08-07T05:22:00,mfh,33.95
2022-08-07T05:23:00,mfh,33.77
2022-08-07T05:24:00,mfh,33.61
2022-08-07T05:25:00,mfh,32.82
2022-08-07T05:26:00,mfh,32.73
2022-08-07T05:27:00,mfh,32.76
2022-08-07T05:28:00,mfh,32.71
2022-08-07T05:29:00,mfh,33.40
2022-08-07T05:30:00,mfh,33.34
2022-08-07T05:31:00,mfh,33.49
2022-08-07T05:32:00,mfh,34.17
2022-08-07T05:33:00,mfh,32.65
2022-08-07T05:34:00,mfh,32.60
2022-08-07T05:35:00,mfh,32.61
2022-08-07T05:36:00,mfh,32.57
2022-08-07T05:37:00,mfh,33.41
2022-08-07T05:38:00,mfh,33.42
2022-08-07T05:39:00,mfh,33.43
2022-08-07T05:40:00,mfh,33.49
2022-08-07T05:41:00,mfh,32.31
2022-08-07T05:42:00,mfh,32.36
2022-08-07T05:43:00,mfh,32.31
2022-08-07T05:44:00,mfh,32.34
2022-08-07T05:45:00,mfh,32.37
2022-08-07T05:46:00,mfh,33.01
2022-08-07T05:47:00,mfh,33.01
2022-08-07T05:48:00,mfh,33.04
2022-08-07T05:49:00,mfh,32.43
2022-08-07T05:50:00,mfh,33.27
2022-08-07T05:51:00,mfh,32.31
2022-08-07T05:52:00,mfh,32.29
2022-08-07T05:53:00,mfh,33.01
2022-08-07T05:54:00,mfh,33.03
2022-08-07T05:55:00,mfh,32.94
2022-08-07T05:56:00,mfh,32.89
2022-08-07T05:57:00,mfh,32.25
2022-08-07T05:58:00,mfh,32.34
2022-08-07T05:59:00,mfh,32.20
2022-08-07T06:00:00,mfh,32.18
2022-08-07T06:01:00,mfh,32.21
2022-08-07T06:02:00,mfh,32.98
2022-08-07T06:03:00,mfh,32.83
2022-08-07T06:04:00,mfh,32.82
2022-08-07T06:05:00,mfh,32.26
2022-08-07T06:06:00,mfh,32.17
2022-08-07T06:07:00,mfh,32.12
2022-08-07T06:08:00,mfh,32.09
2022-08-07T06:09:00,mfh,32.08
2022-08-07T06:10:00,mfh,32.64
2022-08-07T06:11:00,mfh,32.96
2022-08-07T06:12:00,mfh,32.94
2022-08-07T06:13:00,mfh,32.46
2022-08-07T06:14:00,mfh,33.05
2022-08-07T06:15:00,mfh,32.32
2022-08-07T06:16:00,mfh,32.33
2022-08-07T06:17:00,mfh,32.76
2022-08-07T06:18:00,mfh,32.97
2022-08-07T06:19:00,mfh,33.04
2022-08-07T06:20:00,mfh,33.03
2022-08-07T06:21:00,mfh,33.10
2022-08-07T06:22:00,mfh,32.44
2022-08-07T06:23:00,mfh,32.46
2022-08-07T06:24:00,mfh,32.41
2022-08-07T06:25:00,mfh,32.47
2022-08-07T06:26:00,mfh,33.07
2022-08-07T06:27:00,mfh,33.12
2022-08-07T06:28:00,mfh,33.06
2022-08-07T06:29:00,mfh,33.18
2022-08-07T06:30:00,mfh,32.50
2022-08-07T06:31:00,mfh,32.49
2022-08-07T06:32:00,mfh,33.09
2022-08-07T06:33:00,mfh,32.30
2022-08-07T06:34:00,mfh,32.78
2022-08-07T06:35:00,mfh,32.90
2022-08-07T06:36:00,mfh,32.90
2022-08-07T06:37:00,mfh,32.87
2022-08-07T06:38:00,mfh,32.21
2022-08-07T06:39:00,mfh,32.42
2022-08-07T06:40:00,mfh,31.99
2022-08-07T06:41:00,mfh,32.11
2022-08-07T06:42:00,mfh,32.86
2022-08-07T06:43:00,mfh,33.03
2022-08-07T06:44:00,mfh,33.00
2022-08-07T06:45:00,mfh,32.93
2022-08-07T06:46:00,mfh,32.50
2022-08-07T06:47:00,mfh,32.62
2022-08-07T06:48:00,mfh,32.52
2022-08-07T06:49:00,mfh,32.46
2022-08-07T06:50:00,mfh,33.14
2022-08-07T06:51:00,mfh,33.04
2022-08-07T06:52:00,mfh,33.14
2022-08-07T06:53:00,mfh,33.19
2022-08-07T06:54:00,mfh,32.50
2022-08-07T06:55:00,mfh,33.27
2022-08-07T06:56:00,mfh,33.20
2022-08-07T06:57:00,mfh,33.08
2022-08-07T06:58:00,mfh,33.71
2022-08-07T06:59:00,mfh,32.99
2022-08-07T07:00:00,mfh,32.97
2022-08-07T07:01:00,mfh,33.00
2022-08-07T07:02:00,mfh,32.33
2022-08-07T07:03:00,mfh,32.33
2022-08-07T07:04:00,mfh,32.39
2022-08-07T07:05:00,mfh,32.18
2022-08-07T07:06:00,mfh,33.16
2022-08-07T07:07:00,mfh,32.70
2022-08-07T07:08:00,mfh,32.77
2022-08-07T07:09:00,mfh,32.83
2022-08-07T07:10:00,mfh,32.22
2022-08-07T07:11:00,mfh,32.63
2022-08-07T07:12:00,mfh,32.28
2022-08-07T07:13:00,mfh,32.37
2022-08-07T07:14:00,mfh,33.03
2022-08-07T07:15:00,mfh,33.01
2022-08-07T07:16:00,mfh,33.08
2022-08-07T07:17:00,mfh,33.00
2022-08-07T07:18:00,mfh,32.38
2022-08-07T07:19:00,mfh,32.42
2022-08-07T07:20:00,mfh,32.47
2022-08-07T07:21:00,mfh,32.89
2022-08-07T07:22:00,mfh,32.54
2022-08-07T07:23:00,mfh,33.23
2022-08-07T07:24:00,mfh,33.21
2022-08-07T07:25:00,mfh,33.31
2022-08-07T07:26:00,mfh,33.21
2022-08-07T07:27:00,mfh,32.89
2022-08-07T07:28:00,mfh,33.50
2022-08-07T07:29:00,mfh,32.87
2022-08-07T07:30:00,mfh,32.71
2022-08-07T07:31:00,mfh,33.33
2022-08-07T07:32:00,mfh,33.30
2022-08-07T07:33:00,mfh,33.28
2022-08-07T07:34:00,mfh,33.36
2022-08-07T07:35:00,mfh,32.98
2022-08-07T07:36:00,mfh,32.77
2022-08-07T07:37:00,mfh,32.77
2022-08-07T07:38:00,mfh,32.87
2022-08-07T07:39:00,mfh,33.82
2022-08-07T07:40:00,mfh,33.42
2022-08-07T07:41:00,mfh,33.44
2022-08-07T07:42:00,mfh,33.16
2022-08-07T07:43:00,mfh,32.56
2022-08-07T07:44:00,mfh,32.55
2022-08-07T07:45:00,mfh,32.43
2022-08-07T07:46:00,mfh,32.46
2022-08-07T07:47:00,mfh,33.05
2022-08-07T07:48:00,mfh,33.02
2022-08-07T07:49:00,mfh,33.05
2022-08-07T07:50:00,mfh,33.14
2022-08-07T07:51:00,mfh,32.42
2022-08-07T07:52:00,mfh,32.60
2022-08-07T07:53:00,mfh,32.30
2022-08-07T07:54:00,mfh,32.11
2022-08-07T07:55:00,mfh,32.77
2022-08-07T07:56:00,mfh,32.70
2022-08-07T07:57:00,mfh,33.04
2022-08-07T07:58:00,mfh,33.28
2022-08-07T07:59:00,mfh,32.39
2022-08-07T08:00:00,mfh,32.38
2022-08-07T08:01:00,mfh,32.31
2022-08-07T08:02:00,mfh,32.19
2022-08-07T08:03:00,mfh,32.86
2022-08-07T08:04:00,mfh,32.83
2022-08-07T08:05:00,mfh,33.20
2022-08-07T08:06:00,mfh,34.03
2022-08-07T08:07:00,mfh,33.32
2022-08-07T08:08:00,mfh,32.41
2022-08-07T08:09:00,mfh,32.42
2022-08-07T08:10:00,mfh,32.32
2022-08-07T08:11:00,mfh,32.94
2022-08-07T08:12:00,mfh,32.97
2022-08-07T08:13:00,mfh,33.00
2022-08-07T08:14:00,mfh,33.10
2022-08-07T08:15:00,mfh,32.46
2022-08-07T08:16:00,mfh,32.44
2022-08-07T08:17:00,mfh,32.45
2022-08-07T08:18:00,mfh,32.27
2022-08-07T08:19:00,mfh,32.84
2022-08-07T08:20:00,mfh,33.27
2022-08-07T08:21:00,mfh,32.91
2022-08-07T08:22:00,mfh,32.94
2022-08-07T08:23:00,mfh,32.33
2022-08-07T08:24:00,mfh,32.36
2022-08-07T08:25:00,mfh,32.31
2022-08-07T08:26:00,mfh,32.12
2022-08-07T08:27:00,mfh,32.10
2022-08-07T08:28:00,mfh,33.94
2022-08-07T08:29:00,mfh,32.95
2022-08-07T08:30:00,mfh,32.91
2022-08-07T08:31:00,mfh,36.32
2022-08-07T08:32:00,mfh,36.33
2022-08-07T08:33:00,mfh,36.28
2022-08-07T08:34:00,mfh,36.18
2022-08-07T08:35:00,mfh,36.87
2022-08-07T08:36:00,mfh,36.84
2022-08-07T08:37:00,mfh,37.00
2022-08-07T08:38:00,mfh,38.47
2022-08-07T08:39:00,mfh,36.89
2022-08-07T08:40:00,mfh,36.19
2022-08-07T08:41:00,mfh,36.20
2022-08-07T08:42:00,mfh,36.23
2022-08-07T08:43:00,mfh,36.29
2022-08-07T08:44:00,mfh,37.18
2022-08-07T08:45:00,mfh,36.84
2022-08-07T08:46:00,mfh,38.29
2022-08-07T08:47:00,mfh,37.80
2022-08-07T08:48:00,mfh,37.98
2022-08-07T08:49:00,mfh,37.27
2022-08-07T08:50:00,mfh,36.92
2022-08-07T08:51:00,mfh,37.03
2022-08-07T08:52:00,mfh,37.64
2022-08-07T08:53:00,mfh,38.57
2022-08-07T08:54:00,mfh,37.98
2022-08-07T08:55:00,mfh,37.97
2022-08-07T08:56:00,mfh,38.39
2022-08-07T08:57:00,mfh,37.34
2022-08-07T08:58:00,mfh,37.24
2022-08-07T08:59:00,mfh,37.24
2022-08-07T09:00:00,mfh,37.13
2022-08-07T09:01:00,mfh,38.11
2022-08-07T09:02:00,mfh,37.64
2022-08-07T09:03:00,mfh,47.44
2022-08-07T09:04:00,mfh,47.99
2022-08-07T09:05:00,mfh,47.00
2022-08-07T09:06:00,mfh,47.35
2022-08-07T09:07:00,mfh,47.30
2022-08-07T09:08:00,mfh,47.36
2022-08-07T09:09:00,mfh,47.69
2022-08-07T09:10:00,mfh,48.18
2022-08-07T09:11:00,mfh,49.23
2022-08-07T09:12:00,mfh,49.24
2022-08-07T09:13:00,mfh,49.12
2022-08-07T09:14:00,mfh,48.37
2022-08-07T09:15:00,mfh,48.34
2022-08-07T09:16:00,mfh,48.97
2022-08-07T09:17:00,mfh,48.85
2022-08-07T09:18:00,mfh,49.90
2022-08-07T09:19:00,mfh,48.82
2022-08-07T09:20:00,mfh,48.98
2022-08-07T09:21:00,mfh,48.94
2022-08-07T09:22:00,mfh,49.44
2022-08-07T09:23:00,mfh,49.41
2022-08-07T09:24:00,mfh,49.53
2022-08-07T09:25:00,mfh,49.60
2022-08-07T09:26:00,mfh,49.79
2022-08-07T09:27:00,mfh,49.05
2022-08-07T09:28:00,mfh,49.30
2022-08-07T09:29:00,mfh,49.31
2022-08-07T09:30:00,mfh,50.16
2022-08-07T09:31:00,mfh,50.23
2022-08-07T09:32:00,mfh,51.21
2022-08-07T09:33:00,mfh,50.66
2022-08-07T09:34:00,mfh,51.82
2022-08-07T09:35:00,mfh,49.74
2022-08-07T09:36:00,mfh,49.73
2022-08-07T09:37:00,mfh,49.84
2022-08-07T09:38:00,mfh,49.83
2022-08-07T09:39:00,mfh,49.88
2022-08-07T09:40:00,mfh,49.58
2022-08-07T09:41:00,mfh,49.80
2022-08-07T09:42:00,mfh,49.62
2022-08-07T09:43:00,mfh,49.95
2022-08-07T09:44:00,mfh,48.51
2022-08-07T09:45:00,mfh,48.77
2022-08-07T09:46:00,mfh,49.33
2022-08-07T09:47:00,mfh,50.21
2022-08-07T09:48:00,mfh,50.19
2022-08-07T09:49:00,mfh,50.08
2022-08-07T09:50:00,mfh,58.59
2022-08-07T09:51:00,mfh,64.67
2022-08-07T09:52:00,mfh,65.09
2022-08-07T09:53:00,mfh,64.23
2022-08-07T09:54:00,mfh,64.00
2022-08-07T09:55:00,mfh,63.68
2022-08-07T09:56:00,mfh,64.05
2022-08-07T09:57:00,mfh,64.19
2022-08-07T09:58:00,mfh,64.22
2022-08-07T09:59:00,mfh,63.84
2022-08-07T10:00:00,mfh,64.36
2022-08-07T10:01:00,mfh,62.28
2022-08-07T10:02:00,mfh,56.26
2022-08-07T10:03:00,mfh,55.69
2022-08-07T10:04:00,mfh,56.97
2022-08-07T10:05:00,mfh,56.25
2022-08-07T10:06:00,mfh,49.13
2022-08-07T10:07:00,mfh,49.04
2022-08-07T10:08:00,mfh,48.92
2022-08-07T10:09:00,mfh,56.62
2022-08-07T10:10:00,mfh,56.60
2022-08-07T10:11:00,mfh,56.44
2022-08-07T10:12:00,mfh,56.18
2022-08-07T10:13:00,mfh,64.31
2022-08-07T10:14:00,mfh,64.39
2022-08-07T10:15:00,mfh,64.21
2022-08-07T10:16:00,mfh,64.45
2022-08-07T10:17:00,mfh,64.47
2022-08-07T10:18:00,mfh,63.73
2022-08-07T10:19:00,mfh,63.64
2022-08-07T10:20:00,mfh,64.06
2022-08-07T10:21:00,mfh,64.34
2022-08-07T10:22:00,mfh,64.60
2022-08-07T10:23:00,mfh,64.58
2022-08-07T10:24:00,mfh,64.60
2022-08-07T10:25:00,mfh,57.02
2022-08-07T10:26:00,mfh,57.26
2022-08-07T10:27:00,mfh,56.26
2022-08-07T10:28:00,mfh,56.29
2022-08-07T10:29:00,mfh,56.57
2022-08-07T10:30:00,mfh,56.59
2022-08-07T10:31:00,mfh,56.61
2022-08-07T10:32:00,mfh,57.16
2022-08-07T10:33:00,mfh,56.27
2022-08-07T10:34:00,mfh,56.87
2022-08-07T10:35:00,mfh,56.46
2022-08-07T10:36:00,mfh,56.16
2022-08-07T10:37:00,mfh,55.71
2022-08-07T10:38:00,mfh,56.28
2022-08-07T10:39:00,mfh,56.90
2022-08-07T10:40:00,mfh,56.91
2022-08-07T10:41:00,mfh,56.57
2022-08-07T10:42:00,mfh,56.39
2022-08-07T10:43:00,mfh,56.32
2022-08-07T10:44:00,mfh,56.50
2022-08-07T10:45:00,mfh,56.24
2022-08-07T10:46:00,mfh,56.11
2022-08-07T10:47:00,mfh,57.65
2022-08-07T10:48:00,mfh,58.24
2022-08-07T10:49:00,mfh,56.66
2022-08-07T10:50:00,mfh,56.56
2022-08-07T10:51:00,mfh,56.85
2022-08-07T10:52:00,mfh,56.01
2022-08-07T10:53:00,mfh,56.28
2022-08-07T10:54:00,mfh,56.26
2022-08-07T10:55:00,mfh,56.91
2022-08-07T10:56:00,mfh,56.97
2022-08-07T10:57:00,mfh,56.99
2022-08-07T10:58:00,mfh,57.00
2022-08-07T10:59:00,mfh,57.08
2022-08-07T11:00:00,mfh,56.53
2022-08-07T11:01:00,mfh,56.65
2022-08-07T11:02:00,mfh,57.69
2022-08-07T11:03:00,mfh,58.27
2022-08-07T11:04:00,mfh,58.19
2022-08-07T11:05:00,mfh,58.63
2022-08-07T11:06:00,mfh,58.11
2022-08-07T11:07:00,mfh,58.49
2022-08-07T11:08:00,mfh,57.24
2022-08-07T11:09:00,mfh,57.24
2022-08-07T11:10:00,mfh,57.03
2022-08-07T11:11:00,mfh,56.73
2022-08-07T11:12:00,mfh,57.57
2022-08-07T11:13:00,mfh,57.15
2022-08-07T11:14:00,mfh,57.31
2022-08-07T11:15:00,mfh,56.81
2022-08-07T11:16:00,mfh,56.72
2022-08-07T11:17:00,mfh,56.09
2022-08-07T11:18:00,mfh,57.28
2022-08-07T11:19:00,mfh,56.39
2022-08-07T11:20:00,mfh,56.72
2022-08-07T11:21:00,mfh,58.72
2022-08-07T11:22:00,mfh,56.23
2022-08-07T11:23:00,mfh,56.46
2022-08-07T11:24:00,mfh,56.48
2022-08-07T11:25:00,mfh,56.75
2022-08-07T11:26:00,mfh,56.15
2022-08-07T11:27:00,mfh,56.04
2022-08-07T11:28:00,mfh,56.11
2022-08-07T11:29:00,mfh,57.12
2022-08-07T11:30:00,mfh,57.27
2022-08-07T11:31:00,mfh,56.84
2022-08-07T11:32:00,mfh,76.08
2022-08-07T11:33:00,mfh,77.18
2022-08-07T11:34:00,mfh,76.77
2022-08-07T11:35:00,mfh,76.17
2022-08-07T11:36:00,mfh,75.95
2022-08-07T11:37:00,mfh,75.71
2022-08-07T11:38:00,mfh,74.95
2022-08-07T11:39:00,mfh,74.94
2022-08-07T11:40:00,mfh,74.79
2022-08-07T11:41:00,mfh,74.57
2022-08-07T11:42:00,mfh,75.16
2022-08-07T11:43:00,mfh,75.30
2022-08-07T11:44:00,mfh,74.98
2022-08-07T11:45:00,mfh,68.30
2022-08-07T11:46:00,mfh,61.46
2022-08-07T11:47:00,mfh,60.20
2022-08-07T11:48:00,mfh,60.02
2022-08-07T11:49:00,mfh,54.43
2022-08-07T11:50:00,mfh,49.48
2022-08-07T11:51:00,mfh,49.59
2022-08-07T11:52:00,mfh,49.27
2022-08-07T11:53:00,mfh,48.89
2022-08-07T11:54:00,mfh,49.35
2022-08-07T11:55:00,mfh,48.26
2022-08-07T11:56:00,mfh,48.33
2022-08-07T11:57:00,mfh,48.25
2022-08-07T11:58:00,mfh,64.14
2022-08-07T11:59:00,mfh,64.15
2022-08-07T12:00:00,mfh,63.51
2022-08-07T12:01:00,mfh,63.22
2022-08-07T12:02:00,mfh,64.00
2022-08-07T12:03:00,mfh,63.22
2022-08-07T12:04:00,mfh,62.34
2022-08-07T12:05:00,mfh,61.82
2022-08-07T12:06:00,mfh,61.65
2022-08-07T12:07:00,mfh,63.05
2022-08-07T12:08:00,mfh,62.19
2022-08-07T12:09:00,mfh,62.12
2022-08-07T12:10:00,mfh,61.92
2022-08-07T12:11:00,mfh,61.74
2022-08-07T12:12:00,mfh,61.18
2022-08-07T12:13:00,mfh,60.97
2022-08-07T12:14:00,mfh,61.11
2022-08-07T12:15:00,mfh,61.66
2022-08-07T12:16:00,mfh,62.35
2022-08-07T12:17:00,mfh,74.96
2022-08-07T12:18:00,mfh,75.90
2022-08-07T12:19:00,mfh,76.56
2022-08-07T12:20:00,mfh,76.76
2022-08-07T12:21:00,mfh,76.31
2022-08-07T12:22:00,mfh,75.75
2022-08-07T12:23:00,mfh,74.69
2022-08-07T12:24:00,mfh,75.33
2022-08-07T12:25:00,mfh,75.24
2022-08-07T12:26:00,mfh,75.07
2022-08-07T12:27:00,mfh,74.94
2022-08-07T12:28:00,mfh,74.91
2022-08-07T12:29:00,mfh,74.00
2022-08-07T12:30:00,mfh,73.98
2022-08-07T12:31:00,mfh,73.97
2022-08-07T12:32:00,mfh,73.74
2022-08-07T12:33:00,mfh,74.20
2022-08-07T12:34:00,mfh,74.46
2022-08-07T12:35:00,mfh,74.48
2022-08-07T12:36:00,mfh,74.07
2022-08-07T12:37:00,mfh,74.27
2022-08-07T12:38:00,mfh,74.42
2022-08-07T12:39:00,mfh,74.41
2022-08-07T12:40:00,mfh,67.79
2022-08-07T12:41:00,mfh,60.14
2022-08-07T12:42:00,mfh,67.15
2022-08-07T12:43:00,mfh,67.00
2022-08-07T12:44:00,mfh,66.94
2022-08-07T12:45:00,mfh,61.18
2022-08-07T12:46:00,mfh,54.91
2022-08-07T12:47:00,mfh,54.63
2022-08-07T12:48:00,mfh,62.65
2022-08-07T12:49:00,mfh,62.58
2022-08-07T12:50:00,mfh,62.66
2022-08-07T12:51:00,mfh,62.58
2022-08-07T12:52:00,mfh,63.49
2022-08-07T12:53:00,mfh,62.74
2022-08-07T12:54:00,mfh,62.67
2022-08-07T12:55:00,mfh,62.17
2022-08-07T12:56:00,mfh,62.00
2022-08-07T12:57:00,mfh,61.59
2022-08-07T12:58:00,mfh,62.30
2022-08-07T12:59:00,mfh,62.31
2022-08-07T13:00:00,mfh,62.17
2022-08-07T13:01:00,mfh,55.00
2022-08-07T13:02:00,mfh,54.98
2022-08-07T13:03:00,mfh,54.49
2022-08-07T13:04:00,mfh,54.32
2022-08-07T13:05:00,mfh,54.34
2022-08-07T13:06:00,mfh,54.45
2022-08-07T13:07:00,mfh,55.60
2022-08-07T13:08:00,mfh,55.17
2022-08-07T13:09:00,mfh,55.24
2022-08-07T13:10:00,mfh,55.15
2022-08-07T13:11:00,mfh,55.52
2022-08-07T13:12:00,mfh,54.90
2022-08-07T13:13:00,mfh,54.69
2022-08-07T13:14:00,mfh,54.53
2022-08-07T13:15:00,mfh,55.03
2022-08-07T13:16:00,mfh,55.23
2022-08-07T13:17:00,mfh,55.66
2022-08-07T13:18:00,mfh,55.56